User: anonymous   Login
Location: NJAA Observatory
(40.6819°N, 74.8979°W)
Time: 09:56:23
(UTC-04:00)
Language:

Iridium 4 - Orbit

View from above orbital plane
View from above orbital plane
View from above satellite
View from above satellite

Ground track
Ground track

The orbit data is extracted from the following two-line orbital elements,

1 24796U 97020E   18171.96869861 +.00000100 +00000-0 +28096-4 0  9997
2 24796 086.3961 163.4796 0002196 087.5044 330.0834 14.35221410106163
Epoch (UTC): 20 June 2018 23:14:55
Eccentricity: 0.0002196
inclination: 86.3961°
perigee height: 773 km
apogee height: 776 km
right ascension of ascending node: 163.4796°
argument of perigee: 87.5044°
revolutions per day: 14.35221410
mean anomaly at epoch: 330.0834°
orbit number at epoch: 10616

The dashed part of the orbit path shows where the satellite is in the earth's shadow,  

DLR